Погода в Яшмакове

Россия / Республика Марий Эл     56°45′40″N   48°05′21″E
темп.,
°C
ветер,
м/с
пор.,
м/с
влажн.,
%
обл.,
%
осадки,
мм/ч
давл.,
гПа
погр.,
м
19 сентября, вс
вс1900:000сз37815 0.0 1024160
03:000сз38825 0.0 1025171
06:00−1ссз37925 0.0 1025156
09:00+5ссз356433 0.0 1025653
12:00+9ссз344889 0.0 10251332
15:00+9ссз4545100 0.0 10251505
18:00+5ссв33626 0.0 102539
21:00+1св387982 0.0 1027194
20 сентября, пн
пн2000:000св35878 0.0 102891
03:00−1св2384100 0.0 102866
06:000всв2379100 0.0 102958
09:00+5в4653100 0.0 1029815
12:00+8в4443100 0.0 10281218
15:00+9в4542100 0.0 10271252
18:00+6всв3755100 0.0 1027175
21:00+5в31060100 0.0 1027262
21 сентября, вт
вт2100:00+5в31061100 0.0 1027320
03:00+4в41063100 0.0 1026374
06:00+4в41073100 0.0 1026403
09:00+7вюв5860100 0.0 1026536
12:00+10в574999 0.0 1024928
15:00+11в574787 0.0 10231178
18:00+7в4105647 0.0 1023366
21:00+6в5126199 0.0 1022436
22 сентября, ср
ср2200:00+7в51261100 0.0 1021450
03:00+6в51361100 0.0 1020461
06:00+6в61462100 0.0 1019448
09:00+9в71456100 0.0 1018572
12:00+11в71353100 0.0 1017768
15:00+10вюв61368100 0.9 1017796
18:00+11вюв51263100 0.1 1018622
21:00+11вюв51156100 0.1 1019499
23 сентября, чт
чт2300:00+10вюв51164100 0.0 1019436
03:00+11юв41072100 0.0 1019524
06:00+8вюв3109292 0.0 1020292
09:00+12юв51062100 0.0 1020588
12:00+15ююв6104897 0.0 1020918
15:00+16ююв694999 0.0 10191247
18:00+13ююв61285100 0.0 1021858
21:00+11ююв61281100 0.3 1021853